リニア彗星

306P/LINEAR (2003)

English version
Home page
Updated on July 19, 2014

---------------------------------------------------------------------

・ プロフィール

符号 306P/2003 O3
発見日 2003年7月30日
発見光度 18.9等
発見者 Lincoln Laboratory Near-Earth Asteroid Research project

・ 写真集

・ 軌道要素

Epoch 2003 Aug. 29.0 TT = JDT 2452880.5
T 2003 Aug. 14.06411 TT                                 MPC
q   1.2463796            (2000.0)            P               Q
n   0.18017508     Peri.    0.76326     +0.95242604     +0.30125448
a   3.1046041      Node   341.50088     -0.28038599     +0.80676147
e   0.5985383      Incl.    8.36446     -0.11945012     +0.50831257
P   5.47
From 253 observations 2003 July 30-2014 July 11, mean residual 0".6.

・ 星図

・ 光度変化

        m1 = 18.5 + 5 logΔ + 10.0 log r

---------------------------------------------------------------------

軌道要素はM.P.E.C. 2014-N76に掲載されたものです。
星図は StellaNavigator Ver.2.0 for Windows (アストロアーツ 編著 / アスキー出版局刊) で作成したものです。
光度グラフはComet for Windowsで作成したものです。

---------------------------------------------------------------------

Copyright(C) Seiichi Yoshida (comet@aerith.net). All rights reserved.